Date,TemperatureHighF,TemperatureAvgF,TemperatureLowF,DewpointHighF,DewpointAvgF,DewpointLowF,HumidityHigh,HumidityAvg,HumidityLow,PressureMaxIn,PressureMinIn,WindSpeedMaxMPH,WindSpeedAvgMPH,GustSpeedMaxMPH,PrecipitationSumIn
2013-1-1,57.2,45.5,50.2,53.0,23.9,-99.9,94,68,68,29.95,29.76,11,-167,17,0.04
2013-1-2,54.2,36.8,41.0,53.0,14.7,-99.9,97,74,84,30.00,29.72,16,-202,17,0.17
2013-1-3,42.7,33.1,33.9,38.0,10.3,-99.9,92,67,74,30.06,29.95,9,-183,12,0.02
2013-1-4,52.1,34.0,28.9,35.0,8.3,-99.9,100,58,42,30.12,30.00,8,-172,18,0.01
2013-1-5,53.2,35.6,28.3,35.0,12.0,-99.9,91,58,35,30.20,30.07,6,-137,10,0.00
2013-1-6,47.7,37.5,37.8,46.0,18.0,-99.9,95,74,74,30.09,29.89,7,-167,13,0.00
2013-1-7,52.0,38.7,35.4,44.0,17.4,-99.9,94,64,55,30.26,29.94,17,-137,20,0.00
2013-1-8,62.8,43.8,39.7,52.0,25.2,-99.9,96,70,64,30.25,30.16,8,-136,10,0.00
2013-1-9,69.4,49.3,40.9,58.0,31.0,-99.9,97,73,64,30.24,30.16,6,-140,9,0.00
2013-1-10,59.3,45.2,46.6,53.0,21.9,-99.9,98,61,46,30.33,30.20,21,-147,21,0.00
2013-1-11,70.8,53.3,46.8,64.0,36.8,-99.9,97,75,68,30.25,29.96,20,-124,24,0.13
2013-1-12,75.5,57.2,55.4,67.0,42.9,-99.9,100,80,71,29.99,29.91,9,-114,13,0.01
2013-1-13,76.3,55.0,55.1,65.0,38.3,-99.9,98,77,66,29.98,29.89,10,-135,13,0.01
2013-1-14,77.8,58.0,57.0,66.0,41.5,-99.9,98,76,62,30.00,29.92,12,-125,18,0.00
2013-1-15,63.9,48.7,52.6,62.0,32.2,-99.9,98,79,83,30.01,29.88,10,-146,13,0.06
2013-1-16,75.0,52.2,53.0,67.0,31.7,-99.9,98,73,70,29.88,29.76,20,-170,23,0.00
2013-1-17,68.0,47.1,41.9,64.0,32.1,-99.9,98,82,84,29.81,29.63,23,-133,30,0.22
2013-1-18,47.7,35.6,35.8,41.0,11.0,-99.9,92,58,46,30.34,29.75,20,-157,23,0.00
2013-1-19,61.3,41.1,32.0,46.0,25.4,-99.9,95,68,51,30.32,30.00,7,-78,9,0.00
2013-1-20,65.8,45.0,39.9,46.0,20.9,-99.9,97,60,35,30.00,29.79,10,-140,21,0.00
2013-1-21,63.8,44.8,33.6,47.0,22.8,-99.9,96,61,41,29.89,29.68,15,-126,22,0.00
2013-1-22,52.8,45.6,43.5,37.0,22.6,-99.9,60,46,39,29.82,29.74,9,-46,19,0.00
2013-1-23,41.3,33.3,27.5,23.0,10.4,-99.9,80,44,26,30.20,0.00,10,-15,17,0.00
2013-1-24,44.5,29.8,27.1,36.0,2.7,-99.9,87,46,32,30.32,29.79,19,-119,28,0.00
2013-1-25,34.5,26.8,24.5,32.0,5.4,-99.9,95,62,48,30.33,29.91,12,-134,17,0.29
2013-1-26,33.9,26.1,28.8,32.0,5.2,-99.9,94,74,90,30.20,29.92,9,-190,12,0.00
2013-1-27,41.5,29.7,28.9,30.0,10.3,-99.9,94,67,56,30.39,30.21,15,-133,20,0.00
2013-1-28,60.1,40.1,27.4,57.0,22.9,-99.9,97,75,70,30.33,30.06,10,-137,13,0.01
2013-1-29,74.2,55.3,52.7,61.0,38.7,-99.9,100,74,58,30.06,29.93,12,-114,17,0.00
2013-1-30,74.0,60.3,60.0,65.0,45.4,-99.9,97,76,71,29.96,29.45,25,-95,38,0.00
2013-1-31,69.0,47.4,43.1,65.0,20.2,-99.9,95,49,28,29.87,29.32,28,-118,42,0.04
2013-2-1,51.5,36.6,26.3,31.0,4.7,-99.9,72,37,19,30.20,29.81,22,-112,40,0.00
2013-2-2,47.1,32.5,26.3,33.0,5.2,-99.9,87,46,23,30.23,29.84,10,-112,15,0.00
2013-2-3,51.0,37.7,32.5,38.0,18.3,-99.9,94,64,45,29.85,29.66,11,-114,20,0.00
2013-2-4,50.3,35.8,27.3,34.0,13.0,-99.9,91,56,36,29.96,29.80,7,-114,13,0.00
2013-2-5,63.4,45.7,39.0,45.0,22.7,-99.9,87,57,29,29.86,29.70,12,-111,20,0.00
2013-2-6,65.0,46.2,36.7,45.0,23.5,-99.9,95,59,35,30.07,29.78,11,-115,13,0.00
2013-2-7,55.4,45.1,46.0,52.0,30.2,-99.9,97,77,77,30.09,29.70,22,-107,27,1.05
2013-2-8,55.1,41.4,45.8,55.0,19.9,-99.9,98,71,71,29.80,29.29,21,-178,31,1.25
2013-2-9,53.2,39.8,31.2,35.0,15.3,-99.9,90,50,30,30.17,29.80,16,-90,22,0.00
2013-2-10,57.1,38.8,26.4,45.0,20.8,-99.9,96,68,31,30.29,30.12,9,-104,11,0.00
2013-2-11,64.2,53.3,47.4,62.0,39.3,-99.9,95,81,81,30.13,29.76,17,-111,29,0.18
2013-2-12,62.5,36.1,51.9,60.0,-5.4,-99.9,91,49,56,29.87,29.75,11,-369,19,0.02
2013-2-13,56.8,32.0,48.5,55.0,-8.8,-99.9,97,57,86,29.80,29.43,12,-394,23,0.11
2013-2-14,54.8,40.3,39.7,48.0,20.7,-99.9,95,68,56,29.90,29.61,13,-135,17,0.00
2013-2-15,59.4,41.8,33.0,43.0,23.9,-99.9,98,68,38,29.90,29.78,9,-97,12,0.00
2013-2-16,49.0,36.3,34.0,43.0,24.2,-99.9,96,81,76,29.77,29.51,13,-92,18,0.22
2013-2-17,37.8,27.7,24.3,32.0,1.6,-99.9,95,53,31,30.10,29.66,23,-144,34,0.00
2013-2-18,50.5,32.5,20.1,29.0,10.1,-99.9,91,55,18,30.27,30.10,10,-85,15,0.00
2013-2-19,60.3,45.6,30.6,56.0,33.6,-99.9,97,80,71,30.12,29.71,14,-81,26,0.28
2013-2-20,55.9,41.5,33.9,45.0,16.0,-99.9,94,53,19,29.93,29.76,12,-93,21,0.00
2013-2-21,55.1,40.1,31.4,36.0,17.4,-99.9,93,52,31,30.07,29.90,10,-81,12,0.00
2013-2-22,47.7,38.4,38.1,46.0,20.6,-99.9,95,68,60,30.14,29.91,17,-113,23,0.00
2013-2-23,51.6,39.7,45.9,51.0,21.2,-99.9,98,80,94,29.90,29.63,6,-177,11,0.67
2013-2-24,62.2,43.8,41.9,50.0,25.3,-99.9,98,74,58,29.81,29.58,9,-146,13,0.00
2013-2-25,44.7,37.9,38.1,44.0,21.2,-99.9,98,67,63,30.00,29.81,18,-89,25,0.01
2013-2-26,68.1,49.3,41.6,67.0,33.8,-99.9,97,80,84,29.91,29.42,22,-132,36,0.58
2013-2-27,62.0,46.5,46.6,60.0,26.5,-99.9,96,67,53,29.61,29.42,19,-133,28,0.00
2013-2-28,55.0,44.2,37.8,44.0,26.1,-99.9,90,63,49,29.64,29.50,13,-81,18,0.00
2013-3-1,54.3,41.5,32.1,34.0,19.2,-99.9,93,54,41,29.70,29.60,10,-93,15,0.00
2013-3-2,52.1,40.2,34.2,35.0,19.1,-99.9,89,56,43,29.72,29.59,12,-93,16,0.00
2013-3-3,46.3,35.8,30.8,30.0,15.4,-99.9,89,56,42,29.75,29.64,15,-82,16,0.00
2013-3-4,48.8,34.9,29.2,27.0,13.1,-99.9,85,51,30,29.91,29.75,16,-62,21,0.00
2013-3-5,61.0,45.4,28.2,56.0,27.2,-99.9,89,62,33,29.93,29.45,17,-70,22,0.02
2013-3-6,60.0,41.6,41.1,57.0,21.2,-99.9,92,62,48,29.70,29.30,33,-105,41,0.07
2013-3-7,54.7,42.7,38.7,34.0,19.4,-99.9,73,51,40,29.97,29.71,19,-84,28,0.00
2013-3-8,54.5,43.0,34.8,31.0,19.7,-99.9,75,48,35,30.02,29.88,22,-58,31,0.00
2013-3-9,61.3,44.5,36.7,37.0,22.7,-99.9,88,53,35,30.10,30.01,15,-70,19,0.00
2013-3-10,60.5,43.6,30.3,45.0,24.4,-99.9,96,63,19,30.13,30.06,12,-77,16,0.00
2013-3-11,68.7,54.7,43.2,57.0,41.5,-99.9,97,72,50,30.08,29.80,16,-50,24,0.00
2013-3-12,68.3,56.2,57.6,63.0,43.0,-99.9,97,80,77,29.80,29.58,16,-98,27,0.74
2013-3-13,60.1,50.2,47.8,54.0,27.1,-99.9,81,51,28,29.86,29.68,17,-63,21,0.00
2013-3-14,52.2,40.5,34.6,32.0,15.7,-99.9,84,45,31,30.01,29.87,17,-61,21,0.00
2013-3-15,57.8,42.7,29.8,42.0,21.1,-99.9,89,55,23,30.00,29.77,16,-62,22,0.00
2013-3-16,74.7,57.8,53.3,53.0,38.0,-99.9,73,57,39,29.77,29.53,15,-63,23,0.00
2013-3-17,60.5,50.2,47.2,51.0,37.3,-99.9,95,73,68,29.97,29.66,18,-60,21,0.00
2013-3-18,65.2,49.5,47.2,57.0,36.2,-99.9,95,78,71,29.95,29.71,18,-88,21,0.00
2013-3-19,68.9,54.3,49.9,59.0,41.5,-99.9,98,75,35,29.78,29.55,13,-55,18,0.43
2013-3-20,56.3,48.3,41.8,38.0,16.3,-99.9,81,35,17,29.91,29.62,16,-51,21,0.00
2013-3-21,51.3,39.1,31.3,36.0,19.3,-99.9,94,58,38,29.75,29.49,18,-72,23,0.00
2013-3-22,52.0,37.8,28.1,34.0,14.1,-99.9,82,46,23,29.89,29.76,10,-51,19,0.00
2013-3-23,58.8,44.7,33.1,38.0,26.7,-99.9,90,58,36,29.85,29.72,6,-42,9,0.00
2013-3-24,51.3,41.5,38.9,50.0,29.4,-99.9,96,82,85,29.75,29.25,20,-95,27,0.23
2013-3-25,49.5,37.9,41.3,43.0,16.0,-99.9,93,64,54,29.61,29.31,17,-150,28,0.03
2013-3-26,49.4,41.0,34.3,35.0,23.2,-99.9,77,58,46,29.87,29.61,13,-50,16,0.00
2013-3-27,55.4,42.7,34.4,34.0,20.1,-99.9,83,51,30,30.00,29.88,18,-60,22,0.00
2013-3-28,54.9,43.2,32.0,33.0,22.9,-99.9,79,51,32,30.05,29.94,13,-31,19,0.00
2013-3-29,60.5,45.0,29.1,37.0,27.0,-99.9,90,58,28,30.13,30.00,14,-30,19,0.00
2013-3-30,64.2,36.1,37.1,44.0,2.1,-99.9,92,53,39,30.05,29.94,9,-267,13,0.00
2013-3-31,68.9,53.9,44.7,57.0,41.3,-99.9,92,75,61,29.95,29.66,22,-60,30,0.04
2013-4-1,70.7,57.4,54.0,60.0,46.0,-99.9,97,79,50,29.71,29.61,13,-65,17,0.03
2013-4-2,61.7,50.6,41.7,53.0,34.3,-99.9,97,61,32,29.94,29.72,19,-29,23,0.00
2013-4-3,56.4,46.0,41.2,46.0,28.8,-99.9,92,62,39,30.11,29.92,13,-57,17,0.00
2013-4-4,61.3,48.8,43.5,61.0,40.2,-99.9,98,78,63,30.14,29.59,18,-16,22,1.48
2013-4-5,62.7,46.6,42.9,62.0,33.4,-99.9,97,80,71,29.82,29.52,13,-98,23,0.01
2013-4-6,58.2,47.7,38.5,44.0,35.2,-99.9,97,70,48,30.11,29.83,20,-30,21,0.00
2013-4-7,70.3,56.2,37.6,54.0,42.1,-99.9,96,68,43,30.10,29.98,14,-35,22,0.00
2013-4-8,75.5,63.7,50.8,61.0,53.7,-99.9,94,75,60,30.02,29.93,15,-17,23,0.00
2013-4-9,78.7,66.5,58.8,65.0,56.1,-99.9,94,76,61,30.03,29.93,20,-27,22,0.00
2013-4-10,81.0,69.0,61.5,66.0,58.3,-99.9,96,74,51,29.95,29.83,16,-17,22,0.00
2013-4-11,81.0,69.8,62.6,68.0,61.2,-99.9,93,79,54,29.85,29.70,17,-14,26,0.00
2013-4-12,77.3,63.7,67.3,71.0,51.9,-99.9,96,82,80,29.70,29.50,22,-84,32,0.65
2013-4-13,71.2,60.6,50.1,65.0,47.8,-99.9,95,71,49,29.84,29.56,20,-35,20,0.00
2013-4-14,78.7,61.7,44.9,57.0,48.0,-99.9,95,67,28,29.93,29.83,12,-8,17,0.00
2013-4-15,71.6,60.7,60.0,62.0,48.4,-99.9,92,76,67,30.01,29.80,16,-67,21,0.10
2013-4-16,75.2,63.8,60.9,65.0,53.2,-99.9,96,79,62,30.09,29.99,9,-50,13,0.04
2013-4-17,79.8,65.5,53.0,64.0,55.9,-99.9,100,77,54,30.06,29.96,12,-20,17,0.00
2013-4-18,76.7,65.5,55.4,65.0,55.4,-99.9,97,77,59,30.03,29.91,20,-27,23,0.00
2013-4-19,78.3,70.6,67.5,73.0,63.3,-99.9,94,83,77,29.91,29.69,23,-22,36,0.09
2013-4-20,73.5,55.4,52.5,70.0,42.8,-99.9,96,74,67,30.07,29.67,19,-59,24,0.99
2013-4-21,59.9,52.4,45.3,47.0,40.0,-99.9,96,68,50,30.27,30.06,22,-11,31,0.00
2013-4-22,55.5,50.2,46.9,52.0,44.1,-99.9,96,86,79,30.23,29.98,25,-19,28,0.65
2013-4-23,63.9,52.6,50.0,53.0,41.9,-99.9,97,80,66,29.99,29.91,23,-57,23,0.00
2013-4-24,68.5,52.7,44.8,58.0,49.7,44.0,97,90,67,30.01,29.94,14,2,19,0.00
2013-4-26,67.5,60.3,50.8,48.0,37.0,-99.9,87,47,27,30.21,30.15,14,-18,16,0.00
2013-4-27,68.9,60.1,48.9,56.0,46.9,40.0,94,66,36,30.20,30.11,13,4,17,0.00
2013-4-28,73.5,62.9,50.8,56.0,46.1,34.0,89,59,27,30.11,29.94,10,3,16,0.00
2013-4-29,68.0,62.1,62.0,63.0,53.5,-99.9,96,82,69,29.94,29.80,13,-38,20,0.43
2013-4-30,74.9,64.1,63.1,64.0,53.1,-99.9,97,78,57,29.93,29.80,17,-48,19,0.00
2013-5-1,71.6,62.9,60.0,64.0,55.5,-99.9,94,83,71,30.07,29.90,17,-23,21,0.08
2013-5-2,69.3,60.7,58.3,62.0,52.0,-99.9,95,81,66,30.10,30.02,17,-32,24,0.06
2013-5-3,65.5,60.1,56.4,59.0,53.2,47.0,93,79,62,30.03,29.96,28,13,37,0.00
2013-5-4,65.0,57.7,53.9,57.0,52.6,-99.9,95,85,70,29.96,29.86,21,0,24,0.22
2013-5-5,65.3,58.2,54.9,63.0,51.8,-99.9,95,88,88,29.88,29.79,20,-33,23,0.25
2013-5-6,72.7,66.2,62.2,66.0,62.5,60.0,95,88,71,29.80,29.69,17,5,28,0.74
2013-5-7,72.8,62.8,53.4,61.0,55.7,51.0,97,79,49,29.78,29.68,19,4,22,0.01
2013-5-8,73.7,63.8,50.0,60.0,55.1,49.0,97,76,50,29.84,29.76,14,5,22,0.00
2013-5-9,82.1,70.7,60.0,63.0,60.4,55.0,93,72,40,29.89,29.79,13,3,17,0.00
2013-5-10,84.7,71.8,57.2,67.0,61.9,56.0,96,74,42,29.91,29.83,18,4,22,0.00
2013-5-11,80.1,70.1,69.6,72.0,59.7,-99.9,91,77,55,29.84,29.65,16,-35,28,0.00
2013-5-12,79.9,72.2,66.7,67.0,57.4,-99.9,90,64,35,29.79,29.59,13,-6,18,0.00
2013-5-13,69.3,62.6,51.4,48.0,42.7,35.0,75,50,30,29.95,29.79,18,7,20,0.00
2013-5-14,72.0,59.9,44.9,49.0,39.7,30.0,86,51,22,30.05,29.95,14,4,18,0.00
2013-5-15,78.9,68.3,54.8,63.0,57.9,49.0,90,71,56,29.95,29.75,18,6,25,0.00
2013-5-16,88.9,75.8,64.3,67.0,63.9,60.0,87,68,41,29.80,29.71,14,5,17,0.00
2013-5-17,87.3,76.2,69.1,69.0,65.9,64.0,90,71,47,29.94,29.79,10,4,15,0.00
2013-5-18,81.8,73.5,65.7,70.0,67.4,64.0,95,82,61,29.99,29.92,14,4,21,0.00
2013-5-19,80.7,73.3,65.8,70.0,66.8,64.0,95,81,62,29.99,29.91,14,4,21,0.00
2013-5-20,80.4,74.0,66.6,70.0,67.2,65.0,95,80,64,29.96,29.88,15,6,23,0.00
2013-5-21,82.0,75.4,70.6,71.0,68.9,67.0,93,81,62,29.89,29.82,17,6,26,0.00
2013-5-22,81.7,76.0,71.6,71.0,69.7,69.0,92,81,65,29.87,29.80,17,6,24,0.00
2013-5-23,79.3,73.6,69.3,73.0,69.7,67.0,95,88,70,29.82,29.66,12,4,16,0.56
2013-5-24,78.8,71.5,60.1,70.0,61.5,45.0,96,73,48,29.94,29.58,17,5,22,0.00
2013-5-25,72.8,61.0,51.6,50.0,42.6,37.0,81,53,30,30.06,29.94,16,5,21,0.00
2013-5-26,75.6,62.4,49.7,56.0,50.4,44.0,93,68,38,30.05,29.96,14,2,14,0.00
2013-5-27,78.0,65.8,48.7,60.0,51.3,47.0,94,65,36,30.10,30.01,12,3,18,0.00
2013-5-28,80.9,68.8,57.2,66.0,60.0,55.0,93,76,54,30.09,30.03,18,3,20,0.00
2013-5-31,85.0,78.0,82.7,71.0,58.5,-99.9,67,59,60,30.03,29.98,12,-58,18,0.00
2013-6-2,83.7,80.0,75.0,72.0,69.7,68.0,89,72,60,29.87,29.78,22,9,26,0.00
2013-6-3,80.1,74.0,69.6,76.0,71.5,68.0,97,92,84,29.80,29.68,14,4,20,1.25
2013-6-4,80.6,69.9,69.4,72.0,60.2,-99.9,97,81,68,29.91,29.71,17,-48,19,0.01
2013-6-5,79.0,73.1,65.1,66.0,62.8,59.0,90,71,52,29.93,29.85,15,5,18,0.00
2013-6-6,80.4,73.7,67.1,73.0,69.2,64.0,95,86,72,29.87,29.68,15,4,21,0.14
2013-6-7,82.7,73.6,73.3,76.0,65.0,-99.9,96,83,74,29.69,29.39,35,-37,43,0.91
2013-6-8,85.5,62.2,71.7,77.0,38.6,-99.9,94,70,73,29.91,29.67,15,-199,24,1.28
2013-6-9,87.1,79.0,74.4,77.0,73.8,70.0,96,85,66,29.97,29.91,14,3,20,0.00
2013-6-10,84.1,78.5,74.1,76.0,73.4,69.0,94,84,73,29.96,29.79,23,7,29,0.00
2013-6-11,85.0,73.8,74.0,77.0,62.2,-99.9,92,78,72,29.82,29.69,15,-59,24,0.22
2013-6-12,92.6,80.9,70.3,76.0,71.2,67.0,96,75,45,29.79,29.69,10,3,18,0.00
2013-6-13,92.9,83.2,70.6,79.0,75.5,66.0,94,79,57,29.69,29.43,28,7,34,0.47
2013-6-14,78.4,73.1,64.4,69.0,61.8,56.0,94,70,48,29.82,29.50,14,5,20,0.08
2013-6-15,85.4,72.2,56.7,63.0,58.6,55.0,93,66,39,29.92,29.82,12,2,16,0.00
2013-6-16,84.0,75.9,66.0,68.0,65.0,60.0,88,70,51,29.97,29.86,16,5,21,0.00
2013-6-17,84.0,60.2,70.7,73.0,31.5,-99.9,87,61,69,29.89,29.79,17,-209,20,0.00
2013-6-18,84.5,62.0,73.6,78.0,37.3,-99.9,94,68,73,29.82,29.61,19,-206,22,0.00
2013-6-19,78.0,73.1,69.7,72.0,69.0,65.0,94,87,75,29.91,29.65,12,5,19,0.79
2013-6-20,80.2,73.2,66.9,69.0,64.5,58.0,91,75,49,30.02,29.89,16,8,20,0.00
2013-6-21,82.7,73.8,67.8,75.0,69.6,64.0,94,87,69,30.02,29.95,16,6,20,0.07
2013-6-22,78.5,69.9,71.7,73.0,60.5,-99.9,95,84,78,30.02,29.95,14,-59,24,0.18
2013-6-23,84.4,78.0,72.3,75.0,73.4,70.0,94,86,71,30.02,29.97,16,4,20,0.06
2013-6-24,83.5,77.6,73.6,76.0,73.6,71.0,94,87,75,30.05,29.92,15,4,20,0.41
2013-6-25,88.3,79.6,71.9,78.0,73.6,69.0,92,82,65,29.96,29.83,14,4,19,0.02
2013-6-26,88.2,79.1,72.2,79.0,71.6,-99.9,100,80,63,29.87,29.75,19,-6,23,0.00
2013-6-27,86.7,75.9,71.8,78.0,65.1,-99.9,90,78,72,29.75,29.58,20,-46,26,0.01
2013-6-28,88.9,81.4,75.0,79.0,76.3,72.0,92,84,73,29.61,29.45,18,8,26,0.22
2013-6-29,81.8,61.3,75.2,76.0,35.3,-99.9,90,66,78,29.61,29.45,18,-217,32,0.01
2013-6-30,79.9,46.9,73.3,75.0,6.7,-99.9,93,55,84,29.74,29.59,11,-379,22,0.97
2013-7-1,80.6,55.8,75.1,76.0,26.0,-99.9,91,65,82,29.89,29.70,19,-269,21,0.49
2013-7-2,84.8,79.3,72.4,77.0,74.2,69.0,93,84,75,30.04,29.88,22,8,31,0.18
2013-7-3,86.1,80.1,74.8,77.0,74.6,72.0,93,83,71,30.09,30.00,18,7,25,0.09
2013-7-4,84.7,61.4,73.1,76.0,34.8,-99.9,92,65,66,30.11,30.05,15,-220,16,0.01
2013-7-5,86.9,80.2,73.5,76.0,73.4,71.0,92,80,64,30.11,30.02,15,4,21,0.01
2013-7-6,86.9,79.1,71.9,75.0,71.9,69.0,92,79,59,30.07,29.98,11,3,18,0.00
2013-7-7,87.9,79.3,69.6,75.0,71.3,67.0,91,77,58,30.02,29.91,14,3,18,0.00
2013-7-8,87.5,59.6,73.0,73.0,30.1,-99.9,90,60,56,30.01,29.93,15,-238,19,0.00
2013-7-9,87.5,79.7,74.0,76.0,73.0,69.0,91,80,55,30.02,29.92,11,4,20,0.00
2013-7-10,88.7,81.3,75.0,76.0,73.2,70.0,90,77,57,29.95,29.82,19,5,23,0.00
2013-7-11,86.2,65.9,75.3,76.0,44.3,-99.9,91,69,67,29.83,29.71,11,-166,20,0.05
2013-7-12,81.1,76.0,72.2,75.0,72.4,70.0,92,88,79,29.81,29.70,9,2,16,1.49
2013-7-13,85.7,77.9,72.2,76.0,72.8,70.0,93,85,67,30.02,29.80,21,6,37,0.79
2013-7-14,88.3,80.3,72.8,76.0,73.4,70.0,92,80,60,30.09,30.01,8,2,14,0.01
2013-7-15,88.0,81.1,75.1,77.0,74.1,72.0,91,80,63,30.10,30.04,12,2,14,0.00
2013-7-16,95.4,82.4,73.5,77.0,73.2,71.0,92,75,49,30.07,29.97,8,2,12,0.00
2013-7-17,91.4,62.9,74.1,76.0,35.0,-99.9,90,62,53,30.00,29.91,9,-219,12,0.07
2013-7-18,93.4,82.4,72.5,76.0,72.2,69.0,92,73,46,29.94,29.87,12,2,17,0.00
2013-7-19,88.8,82.0,75.4,77.0,74.7,72.0,90,79,64,29.94,29.84,19,5,21,0.00
2013-7-20,89.3,82.4,78.2,77.0,74.1,71.0,86,76,60,29.88,29.78,20,7,25,0.00
2013-7-21,85.7,80.9,76.2,77.0,74.0,71.0,86,80,71,29.84,29.75,17,5,24,0.02
2013-7-22,89.2,81.4,75.6,78.0,75.1,73.0,90,82,66,29.78,29.66,15,4,20,0.00
2013-7-23,87.1,80.7,76.7,77.0,74.7,73.0,89,82,70,29.69,29.55,12,5,19,0.00
2013-7-24,90.0,61.9,75.3,76.0,35.1,-99.9,89,64,63,29.63,29.55,12,-222,18,0.00
2013-7-25,85.8,79.5,74.2,75.0,72.3,69.0,89,79,66,29.80,29.59,14,5,17,0.00
2013-7-26,88.1,77.8,71.0,73.0,68.5,65.0,89,74,48,29.90,29.80,11,3,12,0.00
2013-7-27,90.7,78.0,66.1,72.0,68.1,64.0,91,74,46,29.87,29.77,10,2,18,0.00
2013-7-28,89.0,60.2,73.5,76.0,31.5,-99.9,91,62,62,29.83,29.71,18,-238,18,0.00
2013-7-29,86.9,77.4,72.6,77.0,73.2,69.0,91,87,72,29.95,29.83,11,2,15,0.58
2013-7-30,82.0,75.9,71.0,76.0,72.2,68.0,92,88,76,30.00,29.94,12,1,20,2.00
2013-7-31,86.0,75.7,72.2,73.0,65.4,-99.9,92,76,57,29.95,29.85,8,-30,12,0.01
2013-8-1,79.2,40.8,70.0,74.0,-6.6,-99.9,92,48,84,29.84,29.70,19,-453,23,0.75
2013-8-2,88.3,56.8,75.4,78.0,21.0,-99.9,89,55,66,29.85,29.71,16,-307,19,0.00
2013-8-3,87.7,78.3,78.0,78.0,68.1,-99.9,90,78,64,29.85,29.73,13,-39,20,0.02
2013-8-4,87.2,77.9,68.8,77.0,71.4,65.0,92,81,61,29.83,29.67,15,3,20,0.19
2013-8-5,85.4,73.7,62.9,68.0,62.2,55.0,92,70,37,29.89,29.81,6,2,12,0.00
2013-8-6,86.4,75.7,65.7,70.0,66.4,62.0,89,74,52,29.89,29.82,9,2,13,0.00
2013-8-7,86.9,77.6,68.2,74.0,70.3,65.0,90,79,61,29.91,29.86,15,3,18,0.00
2013-8-8,90.6,79.7,73.2,78.0,74.0,70.0,91,83,63,29.88,29.83,10,2,15,0.13
2013-8-9,89.9,79.6,77.6,79.0,68.7,-99.9,90,76,67,29.89,29.83,14,-37,21,0.00
2013-8-10,92.1,82.8,76.4,79.0,74.1,-99.9,90,77,62,29.94,29.83,17,-6,19,0.10
2013-8-11,92.9,79.1,74.8,79.0,71.0,-99.9,91,81,61,29.92,29.83,7,-22,21,0.00
2013-8-12,94.6,80.6,76.2,80.0,70.6,-99.9,89,77,56,29.86,29.75,9,-29,14,0.10
2013-8-13,91.0,79.4,74.0,81.0,70.8,-99.9,91,80,69,29.76,29.60,16,-27,19,0.36
2013-8-14,79.2,70.5,70.5,76.0,59.8,-99.9,93,78,71,29.86,29.59,15,-49,18,1.38
2013-8-15,71.8,62.6,65.3,66.0,48.9,-99.9,91,76,69,29.93,29.85,11,-84,17,0.40
2013-8-16,73.8,66.4,68.6,68.0,56.4,-99.9,91,81,81,29.95,29.85,13,-58,16,0.01
2013-8-17,79.9,69.3,68.6,75.0,60.2,-99.9,93,85,84,29.94,29.86,9,-61,11,1.11
2013-8-18,90.4,74.8,71.8,77.0,62.7,-99.9,93,77,60,30.00,29.92,6,-61,12,0.00
2013-8-19,80.5,71.4,72.7,76.0,63.3,-99.9,92,85,84,29.98,29.89,13,-50,15,1.62
2013-8-20,82.2,74.8,73.1,75.0,67.7,-99.9,92,84,77,29.98,29.90,10,-29,13,0.00
2013-8-21,88.6,76.0,71.5,78.0,66.5,-99.9,93,80,66,30.03,29.93,8,-40,13,1.12
2013-8-22,86.5,77.2,69.8,78.0,70.1,-99.9,92,83,73,29.95,29.82,7,-20,11,0.00
2013-8-23,91.3,77.0,71.0,77.0,67.0,-99.9,92,78,56,29.83,29.71,13,-28,28,0.92
2013-8-24,81.9,71.7,69.7,69.0,60.1,-99.9,93,74,56,30.05,29.81,18,-34,21,0.01
2013-8-25,79.6,71.3,68.4,68.0,59.1,-99.9,81,71,60,30.14,30.04,17,-23,21,0.00
2013-8-26,85.5,72.4,65.0,67.0,59.7,-99.9,88,70,40,30.09,29.93,9,-18,11,0.00
2013-8-27,86.9,72.3,62.1,69.0,59.7,-99.9,91,71,50,29.94,29.79,9,-30,16,0.00
2013-8-28,89.3,74.7,70.5,77.0,63.1,-99.9,90,76,64,29.81,29.70,7,-50,10,0.00
2013-8-29,87.3,74.2,74.8,77.0,61.0,-99.9,88,75,68,29.80,29.64,15,-67,18,0.01
2013-8-30,84.5,73.7,70.4,73.0,63.1,-99.9,90,77,63,29.84,29.77,11,-38,14,0.00
2013-8-31,87.4,76.6,69.1,75.0,66.6,-99.9,92,77,60,29.79,29.70,12,-29,16,0.00
2013-9-1,89.3,78.7,73.6,79.0,69.6,-99.9,92,80,64,29.75,29.65,18,-27,20,0.00
2013-9-2,87.1,73.1,73.7,80.0,59.7,-99.9,93,78,75,29.72,29.62,13,-91,22,0.18
2013-9-3,88.2,74.5,72.6,78.0,64.8,-99.9,93,81,68,29.75,29.62,13,-49,18,0.86
2013-9-4,86.3,67.3,69.3,77.0,50.7,-99.9,93,75,72,29.88,29.74,9,-124,11,0.29
2013-9-5,89.7,74.1,70.6,77.0,64.7,-99.9,93,80,62,29.89,29.82,15,-40,22,0.05
2013-9-6,83.4,73.1,67.6,74.0,64.0,-99.9,93,79,64,29.91,29.83,17,-26,20,0.03
2013-9-7,81.5,71.0,64.0,65.0,56.8,-99.9,87,67,46,29.91,29.80,12,-27,15,0.00
2013-9-8,87.6,71.4,59.7,73.0,59.6,-99.9,93,74,56,29.80,29.70,8,-40,13,0.00
2013-9-9,86.3,72.4,67.6,74.0,59.6,-99.9,91,75,62,29.96,29.80,11,-50,13,0.00
2013-9-10,87.9,74.1,68.1,74.0,60.0,-99.9,91,71,50,30.04,29.96,9,-51,13,0.00
2013-9-11,87.4,73.6,66.1,73.0,62.1,-99.9,91,75,55,30.02,29.90,10,-40,13,0.00
2013-9-12,88.5,72.9,67.5,74.0,59.4,-99.9,92,73,54,29.90,29.63,12,-60,17,0.00
2013-9-13,87.8,75.0,71.4,73.0,61.1,-99.9,87,71,52,29.64,29.53,12,-49,22,0.01
2013-9-14,77.9,67.8,65.2,67.0,54.0,-99.9,85,71,64,29.93,29.64,17,-57,18,0.00
2013-9-15,81.1,69.9,67.2,65.0,56.1,-99.9,88,69,52,30.03,29.92,15,-38,16,0.00
2013-9-16,87.5,70.8,64.7,75.0,59.9,-99.9,91,80,58,29.96,29.84,19,-40,22,1.30
2013-9-17,75.7,49.6,64.0,66.0,14.8,-99.9,87,53,62,30.07,29.94,19,-277,23,0.00
2013-9-18,75.8,62.6,59.1,61.0,47.8,-99.9,87,69,56,30.06,29.96,16,-59,17,0.00
2013-9-19,77.9,64.0,56.0,60.0,50.2,-99.9,92,70,42,29.99,29.89,12,-40,15,0.00
2013-9-20,80.8,66.1,61.6,66.0,51.9,-99.9,92,71,50,29.90,29.79,7,-62,10,0.00
2013-9-21,81.7,67.8,63.8,71.0,57.0,-99.9,91,79,68,29.79,29.56,12,-60,16,0.03
2013-9-22,74.4,26.9,69.3,72.0,-36.8,-99.9,93,34,89,29.65,29.49,7,-627,11,0.25
2013-9-23,72.4,46.3,57.9,57.0,7.5,-99.9,90,47,55,29.89,29.65,14,-305,18,0.00
2013-9-24,74.8,59.3,52.1,59.0,44.6,-99.9,92,70,53,29.91,29.77,12,-63,15,0.00
2013-9-25,71.3,60.1,52.0,62.0,47.4,-99.9,94,75,66,29.78,29.67,10,-62,13,0.01
2013-9-26,77.0,62.6,63.0,64.0,44.4,-99.9,89,67,57,29.79,29.65,15,-99,17,0.03
2013-9-27,73.8,63.6,62.9,63.0,47.1,-99.9,89,67,50,29.93,29.78,20,-64,24,0.00
2013-9-28,74.9,63.5,62.4,63.0,48.8,-99.9,88,71,61,29.98,29.90,17,-65,21,0.00
2013-9-29,76.7,62.9,61.8,65.0,50.0,-99.9,89,76,60,29.92,29.79,11,-69,13,0.00
2013-9-30,74.9,60.4,56.8,61.0,43.8,-99.9,90,68,45,29.87,29.79,9,-80,13,0.00
2013-10-1,80.9,60.8,50.9,62.0,44.4,-99.9,92,68,45,29.93,29.84,9,-73,12,0.00
2013-10-2,87.0,65.0,56.1,66.0,47.7,-99.9,91,68,44,29.93,29.85,13,-82,14,0.00
2013-10-3,84.3,48.4,59.8,68.0,13.4,-99.9,92,56,51,29.96,29.90,10,-304,15,0.00
2013-10-4,85.4,67.8,60.7,70.0,52.9,-99.9,93,72,51,29.96,29.87,10,-75,14,0.01
2013-10-5,87.1,68.6,63.1,70.0,53.1,-99.9,93,71,51,29.93,29.87,12,-72,14,0.00
2013-10-6,81.8,68.0,63.2,72.0,54.2,-99.9,93,75,65,29.89,29.79,12,-81,16,0.03
2013-10-7,83.5,70.4,73.1,73.0,55.6,-99.9,91,74,68,29.78,29.68,22,-90,27,0.04
2013-10-8,73.7,54.3,62.7,70.0,35.2,-99.9,92,75,89,29.89,29.73,20,-160,25,0.93
2013-10-9,66.2,52.6,61.4,64.0,32.8,-99.9,93,75,90,29.88,29.70,18,-170,27,0.69
2013-10-10,63.3,50.5,59.7,61.0,30.8,-99.9,93,76,90,29.70,29.66,15,-174,18,0.02
2013-10-11,66.2,55.5,58.3,63.0,41.7,-99.9,93,81,88,29.75,29.66,9,-113,13,0.03
2013-10-12,69.2,57.3,62.1,65.0,40.8,-99.9,93,77,85,29.84,29.73,5,-137,9,0.00
2013-10-13,77.9,60.7,66.7,70.0,42.8,-99.9,92,75,76,29.92,29.82,12,-142,18,0.00
2013-10-14,71.2,62.1,65.8,68.0,47.8,-99.9,89,77,84,29.95,29.89,18,-98,23,0.00
2013-10-15,69.4,56.0,63.0,66.0,37.7,-99.9,91,75,87,29.91,29.80,13,-152,19,0.00
2013-10-16,73.5,61.9,66.5,68.0,48.3,-99.9,91,79,82,29.82,29.75,9,-103,12,0.00
2013-10-17,79.9,62.0,60.6,68.0,45.6,-99.9,94,74,64,29.79,29.68,9,-114,13,0.00
2013-10-18,75.9,61.6,66.6,67.0,45.6,-99.9,92,75,67,29.82,29.70,9,-114,12,0.21
2013-10-19,75.0,61.7,66.6,72.0,46.9,-99.9,93,80,88,29.77,29.65,5,-125,6,0.42
2013-10-20,69.6,55.6,53.6,67.0,38.8,-99.9,92,72,65,29.91,29.68,15,-114,16,0.01
2013-10-21,69.9,56.5,52.9,59.0,40.7,-99.9,93,71,59,29.95,29.81,8,-92,11,0.00
2013-10-22,67.6,54.6,58.4,61.0,37.5,-99.9,92,73,73,29.81,29.65,5,-126,7,0.04
2013-10-23,71.7,52.9,54.4,61.0,32.2,-99.9,94,67,54,29.76,29.46,13,-144,20,0.20
2013-10-24,61.0,46.1,42.8,44.0,24.3,-99.9,91,59,39,29.98,29.76,10,-106,15,0.00
2013-10-25,56.7,42.7,37.4,45.0,20.5,-99.9,92,59,37,30.15,29.97,15,-112,19,0.00
2013-10-26,63.8,43.8,34.8,48.0,25.4,-99.9,92,67,50,30.15,29.91,7,-105,13,0.00
2013-10-27,69.6,48.5,41.0,49.0,28.8,-99.9,92,65,42,29.97,29.86,8,-93,11,0.00
2013-10-28,71.9,52.0,42.9,57.0,32.9,-99.9,92,67,43,30.07,29.96,3,-116,6,0.00
2013-10-29,72.4,53.8,49.3,57.0,34.5,-99.9,93,68,58,30.13,30.04,7,-125,9,0.00
2013-10-30,76.7,56.0,50.5,61.0,38.3,-99.9,93,69,53,30.12,30.00,8,-105,12,0.00
2013-10-31,73.7,58.7,53.6,68.0,43.2,-99.9,93,76,77,30.04,29.82,17,-113,26,0.00
2013-11-1,76.8,63.0,69.4,71.0,44.2,-99.9,90,72,80,29.81,29.56,17,-142,27,0.02
2013-11-2,73.2,54.4,59.4,70.0,34.6,-99.9,93,73,75,29.69,29.48,11,-166,17,0.69
2013-11-3,62.2,49.4,51.8,57.0,24.1,-99.9,89,55,47,30.13,29.69,14,-138,18,0.00
2013-11-4,56.5,46.5,49.2,46.0,25.0,-99.9,88,59,49,30.30,30.14,19,-107,24,0.00
2013-11-5,70.7,54.2,49.5,59.0,36.2,-99.9,89,69,63,30.26,30.19,21,-109,22,0.00
2013-11-6,66.9,54.9,56.1,63.0,39.8,-99.9,93,79,83,30.19,29.93,15,-121,18,0.25
2013-11-7,71.2,53.9,55.5,67.0,32.5,-99.9,94,72,61,29.92,29.71,11,-178,22,0.15
2013-11-8,56.7,43.2,37.7,42.0,18.7,-99.9,92,55,37,30.12,29.84,13,-122,21,0.00
2013-11-9,63.8,44.0,35.5,49.0,23.8,-99.9,93,67,53,30.19,30.01,7,-137,9,0.00
2013-11-10,70.9,50.8,49.5,50.0,27.2,-99.9,91,58,36,30.02,29.87,11,-124,13,0.00
2013-11-11,60.1,44.5,39.9,46.0,22.9,-99.9,92,61,53,30.13,29.97,14,-124,20,0.00
2013-11-12,66.3,42.1,35.9,46.0,18.1,-99.9,93,58,39,30.15,29.82,24,-131,32,0.00
2013-11-13,44.6,30.7,28.2,31.0,3.3,-99.9,91,53,37,30.30,30.14,19,-165,27,0.00
2013-11-14,57.8,36.2,25.0,33.0,10.8,-99.9,92,55,25,30.32,30.17,6,-126,10,0.00
2013-11-15,69.7,48.1,33.8,55.0,27.6,-99.9,92,65,49,30.19,30.04,9,-127,13,0.11
2013-11-16,70.5,52.7,57.0,64.0,34.0,-99.9,94,75,77,30.07,29.99,12,-156,13,0.01
2013-11-17,77.7,55.5,57.1,68.0,34.8,-99.9,93,72,66,30.01,29.77,11,-167,18,0.04
2013-11-18,79.8,60.3,59.6,71.0,40.4,-99.9,92,69,50,29.77,29.57,18,-143,19,0.00
2013-11-19,60.6,45.2,45.9,40.0,16.7,-99.9,76,47,42,30.08,29.70,19,-132,24,0.00
2013-11-20,57.8,44.0,43.8,47.0,22.3,-99.9,85,63,64,30.20,30.06,21,-138,23,0.00
2013-11-21,61.1,47.4,51.8,58.0,29.2,-99.9,93,76,84,30.25,30.18,10,-155,12,0.05
2013-11-22,73.3,53.7,51.6,63.0,35.3,-99.9,94,73,69,30.19,29.91,8,-145,12,0.00
2013-11-23,64.6,47.6,50.0,62.0,27.8,-99.9,92,73,62,29.91,29.82,10,-167,17,0.09
2013-11-24,49.9,31.2,31.8,34.0,-5.5,-99.9,56,33,29,30.34,29.90,23,-171,28,0.01
2013-11-25,43.2,30.5,29.8,35.0,4.3,-99.9,89,51,42,30.39,30.18,10,-146,14,0.00
2013-11-26,68.5,50.7,38.3,67.0,33.8,-99.9,94,76,74,30.17,29.46,21,-134,29,0.99
2013-11-27,72.3,37.2,35.9,69.0,7.8,-99.9,93,65,71,29.93,29.24,19,-268,39,0.20
2013-11-28,44.3,29.4,30.3,30.0,1.4,-99.9,92,55,45,30.31,29.94,19,-178,19,0.00
2013-11-29,52.0,35.8,31.0,36.0,10.0,-99.9,93,55,39,30.40,30.29,18,-152,19,0.00
2013-11-30,57.3,40.6,36.9,47.0,20.0,-99.9,89,66,67,30.38,30.14,15,-142,17,0.00
2013-12-1,54.6,41.3,44.1,51.0,22.2,-99.9,93,75,83,30.13,29.82,7,-167,9,0.00
2013-12-2,55.9,39.5,45.2,48.0,12.5,-99.9,93,63,69,29.82,29.61,12,-223,12,0.01
2013-12-3,63.5,43.0,34.9,45.0,18.7,-99.9,93,60,42,29.84,29.67,8,-160,10,0.00
2013-12-4,65.2,49.2,50.4,63.0,30.0,-99.9,94,76,83,29.93,29.83,3,-172,8,0.15
2013-12-5,74.7,54.3,52.7,68.0,33.4,-99.9,95,72,72,29.99,29.91,11,-176,17,0.00
2013-12-6,76.8,61.0,68.3,70.0,42.8,-99.9,92,75,77,29.97,29.87,18,-142,28,0.00
2013-12-7,70.7,44.8,43.6,68.0,27.7,-99.9,93,77,85,30.23,29.87,18,-138,25,0.36
2013-12-8,44.7,32.4,41.1,42.0,5.2,-99.9,93,68,84,30.21,30.07,17,-250,20,0.00
2013-12-9,56.8,13.8,42.7,55.0,-57.2,-99.9,93,27,93,30.07,29.88,6,-704,8,0.02
2013-12-10,74.9,36.4,40.7,67.0,0.8,-99.9,94,59,76,30.13,29.63,21,-329,29,0.26
2013-12-11,51.0,34.8,32.0,35.0,11.0,-99.9,92,58,43,30.28,30.10,10,-147,14,0.00
2013-12-12,45.5,32.8,28.0,33.0,9.3,-99.9,93,59,46,30.21,30.06,15,-146,20,0.01
2013-12-13,53.3,36.8,25.9,31.0,26.2,19.0,93,71,28,30.25,30.11,8,1,13,0.00
2013-12-14,55.4,20.3,33.2,41.0,-33.6,-99.9,90,39,59,30.14,29.57,13,-509,14,0.00
2013-12-15,51.4,12.4,39.5,45.0,-61.1,-99.9,92,24,80,29.88,29.50,2,-726,10,0.00
2013-12-16,57.3,43.3,33.1,41.0,35.5,31.0,92,77,45,30.01,29.88,8,2,13,0.00
2013-12-17,62.4,51.1,37.8,49.0,41.4,36.0,93,72,42,29.99,29.76,19,5,25,0.00
2013-12-18,55.0,43.7,29.8,41.0,30.2,21.0,90,62,31,30.14,29.79,14,3,19,0.00
2013-12-19,61.0,43.7,28.6,42.0,33.2,26.0,92,71,33,30.18,30.08,11,2,18,0.00
2013-12-20,70.7,55.4,40.2,62.0,51.2,38.0,92,86,65,30.09,29.97,18,3,18,0.00
2013-12-21,72.3,64.7,54.1,67.0,61.5,52.0,94,89,80,30.01,29.93,11,4,20,0.01
2013-12-22,77.3,45.5,69.3,71.0,5.5,-99.9,90,54,78,29.97,29.91,17,-366,26,0.00
2013-12-23,-200.0,0.0,200.0,-99.9,-99.9,-99.9,0,0,100,29.95,29.83,0,-999,0,0.00
2013-12-24,48.7,38.6,38.8,46.0,19.9,-99.9,93,68,62,30.21,29.86,15,-121,21,0.17
2013-12-25,43.7,37.5,31.1,35.0,28.5,21.0,83,70,60,30.34,30.19,14,7,18,0.00
2013-12-26,43.7,41.8,39.3,41.0,38.7,35.0,93,89,77,30.18,30.05,11,3,15,0.07
2013-12-27,52.0,43.6,33.6,37.0,34.3,30.0,92,72,45,30.24,30.14,13,5,16,0.00
2013-12-28,62.4,44.9,29.1,41.0,33.8,27.0,94,69,37,30.23,29.98,7,2,11,0.00
2013-12-29,69.1,62.7,51.2,66.0,58.6,42.0,92,86,71,29.97,29.53,24,9,38,0.04
2013-12-30,58.2,50.5,42.9,50.0,45.5,41.0,94,84,64,29.93,29.74,7,1,10,0.01
2013-12-31,53.3,45.7,36.4,45.0,38.8,32.0,93,79,45,30.18,29.90,13,2,16,0.00
2014-1-1,54.3,43.4,31.9,45.0,37.2,30.0,93,80,50,30.24,29.96,5,1,6,0.03
2014-1-2,57.3,49.7,45.9,56.0,48.0,44.0,95,93,90,29.95,29.33,10,2,25,0.68